Regional Weather Roundup
Issued by NWS

Home | Current Version | Previous Version | Graphics & Text | Print | Product List | Glossary On
Versions: 1 2 3 4 5 6 7 8 9 10 11 12 13 14 15 16 17 18 19 20 21 22 23 24 25 26 27 28 29 30 31 32 33 34 35 36 37 38 39 40 41 42 43 44 45 46 47 48 49 50
000
ASUS44 KMEG 281810
RWRTN
TENNESSEE HOURLY STATE WEATHER ROUNDUP
NATIONAL WEATHER SERVICE MEMPHIS TN
1200 PM CST WED JAN 28 2015

TNZ002-004-019-021-049-052-054-088>092-281900-
WEST TENNESSEE

CITY           SKY/WX    TMP DP  RH WIND       PRES   REMARKS
MEMPHIS INTL   FAIR      52  29  41 SE7       30.26F
NWS MEMPHIS      N/A     51 N/A N/A MISG        N/A
JACKSON        FAIR      47  28  47 MISG      30.27F
DYERSBURG      FAIR      45  25  45 SE12      30.28F
UNION CITY     SUNNY     43  30  61 SE7       30.26F
PARIS          SUNNY     41  27  56 S7        30.28F
LEXINGTON      SUNNY     45  27  49 VRB5      30.28F
SAVANNAH       SUNNY     46  27  46 S5        30.29F
$$

TNZ008-025-027-028-033-062-065-066-281900-
NORTH MIDDLE TENNESSEE

CITY           SKY/WX    TMP DP  RH WIND       PRES   REMARKS
NASHVILLE      MOSUNNY   44  23  43 SE7       30.31F
CLARKSVILLE    SUNNY     43  26  51 SE10      30.29F
SMYRNA         SUNNY     44  24  45 S7        30.31F
COOKEVILLE     SUNNY     39  19  45 CALM      30.29F
CROSSVILLE     SUNNY     38  11  32 VRB7      30.27F WCI  33
$$

TNZ061-075-076-078-094-096-097-281900-
SOUTH MIDDLE TENNESSEE

CITY           SKY/WX    TMP DP  RH WIND       PRES   REMARKS
FAYETTEVILLE   SUNNY     43  25  49 MISG      30.28F
TULLAHOMA      SUNNY     43  21  42 CALM      30.28F
WINCHESTER     SUNNY     46  25  42 VRB5      30.28F
MCMINNVILLE    SUNNY     43  19  39 VRB5      30.28F
COLUMBIA       SUNNY     45  28  53 E6        30.27F
SHELBYVILLE      N/A    N/A N/A N/A VRB7      30.29F
$$

TNZ017-018-042-046-047-281900-
NORTHEAST TENNESSEE

CITY           SKY/WX    TMP DP  RH WIND       PRES   REMARKS
TRI CITIES     SUNNY     33  18  53 CALM      30.29F
ELIZABETHTON   CLEAR     30  14  51 VRB3      30.27F
$$

TNZ012-013-036-069-073-074-281900-
CENTRAL EAST TENNESSEE

CITY           SKY/WX    TMP DP  RH WIND       PRES   REMARKS
KNOXVILLE      MOSUNNY   38  14  37 VRB6      30.31F WCI  33
OAK RIDGE      SUNNY     39  10  30 E3        30.33F
GATLINBURG     CLEAR     36  18  48 NE5       30.30F WCI  32
MORRISTOWN     CLEAR     36  16  44 CALM      30.30F
$$

TNZ083-085-099-281900-
SOUTHEAST TENNESSEE

CITY           SKY/WX    TMP DP  RH WIND       PRES   REMARKS
CHATTANOOGA    MOSUNNY   44  17  33 N6        30.32F
$$

SKY/WX REPORTED AS FAIR MEANS FEW OR NO CLOUDS BELOW
12 THOUSAND FEET.



USA.gov is the U.S. government's official web portal to all federal, state and local government web resources and services.